Total_Precipitation_Accumulation
0.05 0.06 0.07 0.07 0.07 0.07 0.11 0.07 0.09 0.06 0.06 0.08 0.06 0.07 0.06 0.06 0.06 0.05 0.05 0.07 0.07 0.08 0.13 0.14 0.15 0.14 0.13 0.15 0.20 0.21 0.18 0.18 0.16 0.16 0.18 0.17 0.20 0.23 0.23 0.22 0.35 0.31 0.20 0.06 0.02 0.01 0.01 0.00 0.02 0.03 0.06 0.09 0.15 0.16 0.15 0.05 0.04 0.05 0.02 0.05 0.06 0.09 0.04
0.06 0.06 0.07 0.07 0.07 0.07 0.07 0.12 0.09 0.06 0.07 0.06 0.05 0.06 0.07 0.09 0.11 0.07 0.07 0.06 0.06 0.05 0.07 0.11 0.13 0.11 0.10 0.11 0.19 0.22 0.22 0.22 0.19 0.23 0.22 0.18 0.19 0.20 0.20 0.18 0.22 0.26 0.22 0.14 0.05 0.02 0.01 0.01 0.01 0.03 0.04 0.07 0.08 0.13 0.17 0.15 0.10 0.07 0.07 0.06 0.09 0.11 0.06
0.09 0.09 0.09 0.09 0.08 0.08 0.10 0.10 0.11 0.08 0.12 0.13 0.11 0.08 0.06 0.06 0.06 0.05 0.05 0.05 0.04 0.04 0.05 0.08 0.11 0.12 0.11 0.12 0.20 0.22 0.23 0.23 0.25 0.23 0.21 0.22 0.16 0.14 0.12 0.14 0.19 0.23 0.21 0.15 0.11 0.05 0.03 0.02 0.02 0.02 0.04 0.05 0.09 0.11 0.09 0.15 0.18 0.15 0.13 0.10 0.10 0.09 0.06
0.07 0.09 0.08 0.09 0.09 0.14 0.08 0.09 0.07 0.10 0.12 0.13 0.10 0.12 0.14 0.10 0.08 0.07 0.07 0.08 0.06 0.05 0.05 0.06 0.09 0.10 0.11 0.16 0.18 0.19 0.19 0.22 0.24 0.23 0.23 0.21 0.18 0.17 0.12 0.09 0.09 0.15 0.18 0.16 0.15 0.09 0.06 0.03 0.03 0.03 0.04 0.05 0.06 0.10 0.14 0.15 0.22 0.23 0.21 0.16 0.17 0.08 0.08
0.08 0.09 0.10 0.09 0.07 0.06 0.05 0.05 0.05 0.06 0.06 0.06 0.07 0.09 0.09 0.10 0.10 0.10 0.10 0.09 0.09 0.10 0.10 0.08 0.07 0.07 0.08 0.09 0.15 0.18 0.21 0.22 0.23 0.25 0.25 0.23 0.17 0.17 0.14 0.12 0.12 0.14 0.16 0.24 0.18 0.13 0.08 0.04 0.04 0.04 0.05 0.05 0.08 0.10 0.15 0.18 0.21 0.23 0.27 0.25 0.21 0.15 0.10
0.11 0.11 0.09 0.08 0.08 0.07 0.09 0.06 0.06 0.06 0.08 0.05 0.04 0.04 0.05 0.06 0.07 0.07 0.09 0.11 0.12 0.10 0.11 0.11 0.10 0.09 0.10 0.11 0.12 0.13 0.13 0.18 0.24 0.27 0.23 0.22 0.24 0.25 0.20 0.18 0.16 0.15 0.19 0.20 0.19 0.16 0.11 0.07 0.06 0.06 0.07 0.06 0.08 0.09 0.13 0.21 0.23 0.22 0.27 0.29 0.29 0.27 0.20
0.12 0.12 0.11 0.10 0.10 0.09 0.08 0.08 0.07 0.06 0.05 0.05 0.05 0.06 0.06 0.06 0.06 0.05 0.06 0.06 0.08 0.08 0.09 0.10 0.11 0.11 0.10 0.11 0.11 0.12 0.12 0.12 0.13 0.21 0.24 0.25 0.26 0.24 0.27 0.33 0.33 0.28 0.21 0.19 0.20 0.23 0.12 0.10 0.13 0.07 0.10 0.06 0.06 0.08 0.08 0.12 0.20 0.26 0.24 0.26 0.27 0.27 0.24
0.14 0.13 0.12 0.13 0.12 0.11 0.09 0.09 0.08 0.07 0.06 0.06 0.05 0.05 0.07 0.06 0.08 0.09 0.08 0.07 0.06 0.06 0.07 0.08 0.10 0.10 0.09 0.09 0.08 0.09 0.08 0.09 0.11 0.16 0.20 0.19 0.21 0.25 0.33 0.35 0.34 0.32 0.30 0.29 0.28 0.22 0.19 0.15 0.10 0.08 0.06 0.09 0.12 0.13 0.14 0.11 0.13 0.19 0.20 0.25 0.28 0.26 0.25
0.18 0.17 0.18 0.14 0.14 0.14 0.11 0.12 0.10 0.08 0.09 0.09 0.08 0.08 0.10 0.08 0.09 0.08 0.07 0.07 0.07 0.07 0.07 0.07 0.07 0.08 0.11 0.08 0.06 0.06 0.07 0.07 0.08 0.12 0.15 0.16 0.19 0.25 0.30 0.33 0.33 0.35 0.36 0.34 0.31 0.28 0.19 0.16 0.11 0.11 0.10 0.10 0.12 0.15 0.14 0.11 0.11 0.15 0.17 0.18 0.20 0.23 0.27
0.19 0.21 0.29 0.18 0.16 0.15 0.17 0.14 0.12 0.11 0.10 0.11 0.13 0.13 0.11 0.12 0.10 0.09 0.09 0.09 0.07 0.06 0.06 0.06 0.07 0.06 0.05 0.06 0.06 0.06 0.06 0.07 0.07 0.08 0.12 0.16 0.18 0.20 0.27 0.31 0.35 0.33 0.30 0.32 0.37 0.30 0.24 0.23 0.15 0.11 0.08 0.09 0.07 0.06 0.06 0.07 0.07 0.08 0.08 0.09 0.17 0.19 0.24
0.27 0.26 0.25 0.24 0.24 0.26 0.23 0.21 0.15 0.13 0.15 0.19 0.24 0.21 0.20 0.16 0.14 0.12 0.12 0.11 0.09 0.08 0.07 0.06 0.06 0.05 0.05 0.05 0.05 0.06 0.07 0.07 0.06 0.07 0.08 0.08 0.11 0.18 0.23 0.29 0.33 0.31 0.28 0.30 0.28 0.30 0.25 0.20 0.14 0.08 0.06 0.05 0.04 0.05 0.06 0.08 0.08 0.08 0.09 0.14 0.18 0.23 0.22
0.34 0.27 0.25 0.25 0.25 0.25 0.23 0.24 0.18 0.18 0.21 0.25 0.30 0.34 0.29 0.24 0.18 0.15 0.13 0.12 0.11 0.09 0.08 0.07 0.07 0.06 0.06 0.06 0.06 0.06 0.05 0.05 0.07 0.08 0.08 0.08 0.08 0.11 0.14 0.19 0.27 0.30 0.30 0.26 0.30 0.31 0.26 0.26 0.18 0.09 0.08 0.06 0.09 0.08 0.05 0.07 0.09 0.13 0.15 0.17 0.17 0.15 0.16
0.31 0.30 0.30 0.29 0.33 0.27 0.25 0.24 0.20 0.23 0.29 0.29 0.36 0.40 0.42 0.37 0.28 0.21 0.15 0.12 0.11 0.11 0.10 0.09 0.09 0.09 0.08 0.07 0.06 0.07 0.07 0.06 0.06 0.07 0.07 0.07 0.08 0.09 0.11 0.14 0.15 0.16 0.26 0.31 0.31 0.31 0.27 0.19 0.18 0.22 0.12 0.05 0.06 0.09 0.12 0.10 0.12 0.14 0.17 0.18 0.17 0.14 0.12
0.36 0.35 0.39 0.38 0.38 0.34 0.33 0.29 0.27 0.29 0.36 0.41 0.47 0.52 0.56 0.40 0.33 0.24 0.17 0.14 0.12 0.11 0.11 0.10 0.11 0.11 0.10 0.09 0.08 0.10 0.09 0.08 0.07 0.08 0.08 0.08 0.09 0.09 0.09 0.11 0.11 0.12 0.14 0.17 0.24 0.29 0.27 0.20 0.29 0.21 0.21 0.35 0.22 0.18 0.17 0.17 0.16 0.17 0.17 0.19 0.19 0.15 0.16
0.40 0.41 0.43 0.43 0.50 0.45 0.43 0.35 0.33 0.40 0.47 0.47 0.50 0.52 0.81 0.52 0.47 0.39 0.29 0.21 0.18 0.16 0.14 0.13 0.12 0.12 0.11 0.10 0.11 0.11 0.10 0.10 0.09 0.09 0.09 0.08 0.08 0.08 0.07 0.09 0.09 0.10 0.11 0.12 0.12 0.13 0.14 0.12 0.13 0.14 0.15 0.17 0.23 0.34 0.34 0.27 0.23 0.20 0.20 0.22 0.24 0.25 0.25
0.32 0.33 0.32 0.31 0.34 0.38 0.37 0.28 0.31 0.41 0.48 0.52 0.62 0.70 0.74 0.68 0.45 0.35 0.33 0.27 0.25 0.21 0.18 0.16 0.17 0.17 0.15 0.13 0.12 0.11 0.10 0.11 0.11 0.12 0.12 0.10 0.08 0.07 0.06 0.06 0.06 0.07 0.08 0.06 0.08 0.10 0.11 0.12 0.11 0.16 0.23 0.28 0.31 0.28 0.27 0.29 0.30 0.30 0.32 0.32 0.31 0.27 0.23
0.21 0.22 0.26 0.27 0.27 0.28 0.25 0.23 0.26 0.34 0.43 0.46 0.52 0.89 1.00 0.83 0.50 0.34 0.28 0.24 0.22 0.21 0.20 0.18 0.18 0.18 0.17 0.15 0.13 0.11 0.12 0.14 0.16 0.17 0.17 0.14 0.11 0.09 0.08 0.07 0.05 0.05 0.07 0.09 0.09 0.09 0.11 0.13 0.14 0.16 0.19 0.22 0.24 0.25 0.27 0.28 0.31 0.30 0.26 0.26 0.28 0.21 0.17
0.23 0.22 0.23 0.26 0.26 0.24 0.27 0.24 0.23 0.28 0.30 0.33 0.45 0.53 0.58 0.60 0.52 0.31 0.25 0.26 0.24 0.23 0.22 0.18 0.16 0.16 0.18 0.18 0.14 0.14 0.20 0.19 0.22 0.23 0.19 0.16 0.14 0.12 0.11 0.08 0.06 0.07 0.09 0.08 0.12 0.12 0.10 0.13 0.13 0.17 0.17 0.20 0.22 0.25 0.27 0.32 0.32 0.25 0.17 0.18 0.17 0.16 0.14
0.22 0.20 0.21 0.23 0.25 0.27 0.29 0.28 0.25 0.25 0.32 0.45 0.52 0.56 0.57 0.53 0.49 0.41 0.36 0.36 0.34 0.31 0.24 0.19 0.17 0.18 0.19 0.16 0.12 0.13 0.20 0.28 0.30 0.24 0.18 0.13 0.12 0.12 0.10 0.08 0.07 0.08 0.10 0.11 0.11 0.12 0.12 0.13 0.11 0.12 0.15 0.15 0.17 0.19 0.17 0.19 0.15 0.16 0.18 0.19 0.17 0.16 0.17
0.17 0.18 0.22 0.25 0.30 0.31 0.29 0.29 0.28 0.31 0.38 0.40 0.36 0.41 0.46 0.31 0.30 0.37 0.40 0.41 0.36 0.39 0.35 0.28 0.25 0.21 0.18 0.17 0.15 0.17 0.26 0.34 0.42 0.21 0.16 0.12 0.11 0.10 0.08 0.07 0.06 0.07 0.08 0.09 0.09 0.09 0.08 0.07 0.09 0.10 0.13 0.15 0.17 0.16 0.15 0.28 0.15 0.14 0.15 0.17 0.16 0.15 0.15
0.20 0.24 0.27 0.27 0.27 0.30 0.31 0.30 0.28 0.24 0.30 0.29 0.22 0.30 0.44 0.29 0.28 0.29 0.32 0.33 0.32 0.30 0.31 0.31 0.27 0.25 0.22 0.23 0.25 0.27 0.28 0.37 0.38 0.30 0.20 0.13 0.09 0.08 0.08 0.09 0.09 0.10 0.10 0.14 0.11 0.11 0.11 0.10 0.11 0.15 0.11 0.16 0.18 0.19 0.16 0.24 0.13 0.20 0.13 0.15 0.17 0.17 0.15
0.27 0.26 0.19 0.17 0.21 0.26 0.26 0.24 0.22 0.26 0.27 0.20 0.21 0.30 0.46 0.37 0.30 0.27 0.33 0.31 0.29 0.27 0.25 0.23 0.24 0.25 0.28 0.28 0.28 0.31 0.41 0.41 0.51 0.40 0.30 0.20 0.12 0.10 0.11 0.11 0.12 0.14 0.18 0.15 0.15 0.13 0.13 0.14 0.15 0.14 0.15 0.14 0.17 0.20 0.36 0.21 0.15 0.11 0.12 0.14 0.15 0.15 0.15
0.26 0.21 0.18 0.18 0.22 0.24 0.23 0.21 0.20 0.29 0.23 0.19 0.24 0.30 0.42 0.38 0.32 0.28 0.27 0.26 0.24 0.20 0.18 0.18 0.20 0.21 0.26 0.31 0.37 0.43 0.42 0.50 0.59 0.54 0.46 0.33 0.29 0.24 0.20 0.17 0.22 0.22 0.19 0.19 0.15 0.14 0.16 0.16 0.15 0.15 0.14 0.13 0.14 0.16 0.15 0.15 0.15 0.14 0.14 0.15 0.14 0.13 0.13
0.25 0.16 0.17 0.20 0.22 0.23 0.21 0.20 0.25 0.25 0.18 0.19 0.22 0.28 0.36 0.37 0.30 0.23 0.21 0.20 0.20 0.21 0.20 0.19 0.17 0.16 0.17 0.21 0.23 0.25 0.34 0.52 0.58 0.57 0.45 0.55 0.51 0.42 0.34 0.29 0.30 0.25 0.20 0.17 0.17 0.16 0.15 0.16 0.13 0.12 0.13 0.11 0.11 0.15 0.17 0.16 0.15 0.13 0.14 0.15 0.12 0.10 0.10
0.17 0.18 0.19 0.19 0.21 0.24 0.24 0.23 0.24 0.19 0.19 0.19 0.21 0.21 0.29 0.29 0.31 0.24 0.20 0.19 0.18 0.20 0.19 0.20 0.21 0.20 0.20 0.20 0.20 0.20 0.22 0.41 0.43 0.33 0.46 0.54 0.54 0.52 0.44 0.42 0.36 0.29 0.22 0.21 0.21 0.18 0.15 0.13 0.14 0.13 0.13 0.14 0.14 0.14 0.16 0.18 0.15 0.14 0.14 0.13 0.11 0.11 0.10
0.19 0.17 0.16 0.17 0.17 0.21 0.24 0.27 0.22 0.16 0.18 0.21 0.20 0.19 0.27 0.32 0.27 0.27 0.21 0.18 0.19 0.17 0.16 0.17 0.17 0.14 0.16 0.21 0.27 0.31 0.38 0.54 0.36 0.27 0.29 0.46 0.56 0.42 0.44 0.45 0.42 0.30 0.23 0.20 0.16 0.14 0.15 0.16 0.15 0.16 0.20 0.15 0.14 0.13 0.14 0.16 0.20 0.18 0.16 0.13 0.11 0.10 0.11
0.20 0.19 0.19 0.18 0.17 0.20 0.21 0.24 0.19 0.17 0.18 0.20 0.21 0.20 0.25 0.32 0.27 0.30 0.21 0.19 0.22 0.22 0.21 0.20 0.19 0.17 0.19 0.21 0.22 0.26 0.33 0.32 0.29 0.37 0.50 0.35 0.23 0.32 0.43 0.54 0.43 0.32 0.28 0.25 0.19 0.14 0.11 0.11 0.19 0.16 0.19 0.19 0.17 0.15 0.14 0.13 0.16 0.21 0.21 0.15 0.14 0.11 0.11
0.27 0.28 0.28 0.26 0.23 0.26 0.22 0.19 0.15 0.16 0.19 0.20 0.22 0.27 0.25 0.25 0.24 0.31 0.32 0.19 0.20 0.19 0.18 0.20 0.20 0.24 0.24 0.30 0.32 0.33 0.36 0.37 0.37 0.29 0.22 0.19 0.19 0.20 0.26 0.37 0.44 0.49 0.46 0.28 0.27 0.31 0.20 0.19 0.19 0.17 0.16 0.15 0.13 0.12 0.12 0.13 0.14 0.15 0.22 0.25 0.20 0.18 0.15
0.48 0.38 0.33 0.24 0.32 0.41 0.30 0.21 0.22 0.22 0.22 0.24 0.25 0.29 0.25 0.26 0.25 0.24 0.23 0.15 0.16 0.19 0.23 0.25 0.27 0.27 0.26 0.24 0.25 0.26 0.26 0.26 0.23 0.22 0.24 0.26 0.27 0.24 0.23 0.24 0.35 0.41 0.37 0.27 0.25 0.29 0.26 0.29 0.26 0.20 0.15 0.14 0.14 0.12 0.10 0.11 0.13 0.15 0.15 0.20 0.27 0.27 0.22
0.55 0.49 0.46 0.32 0.25 0.35 0.43 0.35 0.28 0.22 0.20 0.19 0.23 0.25 0.21 0.21 0.21 0.20 0.17 0.16 0.15 0.16 0.19 0.19 0.18 0.18 0.19 0.19 0.18 0.19 0.19 0.18 0.18 0.19 0.21 0.24 0.25 0.25 0.23 0.22 0.23 0.25 0.25 0.24 0.30 0.23 0.24 0.23 0.20 0.16 0.14 0.12 0.10 0.10 0.09 0.09 0.10 0.14 0.15 0.17 0.22 0.25 0.23
0.27 0.28 0.31 0.32 0.39 0.33 0.22 0.23 0.19 0.18 0.17 0.17 0.23 0.22 0.18 0.18 0.22 0.22 0.17 0.14 0.14 0.14 0.13 0.14 0.14 0.16 0.15 0.14 0.15 0.15 0.15 0.14 0.13 0.13 0.14 0.18 0.19 0.22 0.23 0.23 0.23 0.22 0.23 0.24 0.25 0.26 0.27 0.23 0.19 0.16 0.11 0.09 0.08 0.07 0.08 0.10 0.11 0.11 0.14 0.15 0.16 0.20 0.22
0.23 0.27 0.33 0.25 0.37 0.47 0.27 0.23 0.21 0.17 0.17 0.18 0.23 0.22 0.20 0.21 0.22 0.20 0.16 0.12 0.10 0.11 0.11 0.10 0.11 0.13 0.13 0.12 0.12 0.12 0.11 0.11 0.13 0.15 0.14 0.14 0.13 0.13 0.14 0.16 0.19 0.21 0.21 0.22 0.24 0.24 0.24 0.26 0.25 0.22 0.17 0.13 0.10 0.08 0.08 0.09 0.10 0.11 0.12 0.14 0.14 0.15 0.18
0.20 0.21 0.27 0.29 0.35 0.41 0.36 0.26 0.25 0.23 0.20 0.20 0.24 0.22 0.23 0.23 0.24 0.20 0.15 0.14 0.12 0.10 0.10 0.09 0.09 0.11 0.11 0.10 0.09 0.09 0.10 0.12 0.13 0.12 0.11 0.11 0.11 0.11 0.11 0.11 0.12 0.14 0.18 0.21 0.23 0.23 0.23 0.32 0.23 0.24 0.23 0.20 0.17 0.14 0.12 0.10 0.07 0.06 0.06 0.09 0.10 0.11 0.14
0.20 0.17 0.18 0.19 0.29 0.37 0.32 0.25 0.23 0.23 0.23 0.24 0.25 0.24 0.25 0.27 0.29 0.23 0.15 0.13 0.11 0.10 0.09 0.09 0.09 0.10 0.10 0.10 0.09 0.09 0.09 0.09 0.09 0.08 0.06 0.05 0.06 0.06 0.07 0.07 0.09 0.10 0.12 0.15 0.18 0.19 0.19 0.20 0.21 0.23 0.23 0.24 0.23 0.19 0.16 0.15 0.12 0.08 0.07 0.07 0.06 0.06 0.08
0.19 0.15 0.15 0.21 0.26 0.36 0.31 0.22 0.19 0.23 0.28 0.30 0.28 0.28 0.29 0.29 0.36 0.40 0.27 0.17 0.11 0.10 0.09 0.09 0.09 0.08 0.08 0.07 0.07 0.08 0.08 0.07 0.06 0.04 0.03 0.03 0.02 0.03 0.03 0.04 0.05 0.06 0.07 0.09 0.11 0.13 0.15 0.16 0.17 0.19 0.20 0.19 0.20 0.20 0.20 0.17 0.15 0.14 0.11 0.08 0.05 0.05 0.05
0.24 0.19 0.17 0.19 0.21 0.27 0.33 0.25 0.19 0.21 0.29 0.32 0.31 0.33 0.33 0.28 0.24 0.21 0.20 0.15 0.13 0.10 0.09 0.09 0.08 0.07 0.07 0.07 0.07 0.06 0.06 0.05 0.03 0.03 0.03 0.02 0.02 0.02 0.02 0.02 0.03 0.04 0.05 0.06 0.07 0.09 0.11 0.13 0.15 0.17 0.20 0.20 0.19 0.18 0.17 0.16 0.13 0.12 0.11 0.09 0.07 0.06 0.05